Regional Weather Roundup
Issued by NWS

Home | Current Version | Previous Version | Text Only | Print | Product List | Glossary On
Versions: 1 2 3 4 5 6 7 8 9 10 11 12 13 14 15 16 17 18 19 20 21 22 23 24 25 26 27 28 29 30 31 32 33 34 35 36 37 38 39 40 41 42 43 44 45 46 47 48 49 50
000
ASUS44 KMEG 010500
RWRTN
TENNESSEE HOURLY STATE WEATHER ROUNDUP
NATIONAL WEATHER SERVICE MEMPHIS TN
1200 AM CDT MON MAY 01 2017

TNZ002-004-019-021-049-052-054-088>092-010600-
WEST TENNESSEE

CITY           SKY/WX    TMP DP  RH WIND       PRES   REMARKS
MEMPHIS INTL   CLEAR     57  50  77 S10       29.76F
NWS MEMPHIS      N/A     58 N/A N/A MISG        N/A
JACKSON        PTCLDY    60  50  69 SW8       29.78R
DYERSBURG      CLEAR     59  49  69 SW7       29.75F
$$

TNZ008-025-027-028-033-062-065-066-010600-
NORTH MIDDLE TENNESSEE

CITY           SKY/WX    TMP DP  RH WIND       PRES   REMARKS
NASHVILLE      CLOUDY    67  64  90 S14       29.77F
CLARKSVILLE    LGT RAIN  66  63  90 S14G25    29.70S FOG
SMYRNA         CLOUDY    67  64  90 S12G18    29.79F
CROSSVILLE     CLOUDY    64  60  87 S9G17     29.90S
$$

TNZ061-075-076-078-094-096-097-010600-
SOUTH MIDDLE TENNESSEE

CITY           SKY/WX    TMP DP  RH WIND       PRES   REMARKS
WINCHESTER     CLOUDY    68  63  83 S8        29.85F
SHELBYVILLE    MOCLDY    68  64  88 S13       29.83F
$$

TNZ017-018-042-046-047-010600-
NORTHEAST TENNESSEE

CITY           SKY/WX    TMP DP  RH WIND       PRES   REMARKS
TRI CITIES     CLOUDY    67  59  75 CALM      29.95F
$$

TNZ012-013-036-069-073-074-010600-
CENTRAL EAST TENNESSEE

CITY           SKY/WX    TMP DP  RH WIND       PRES   REMARKS
KNOXVILLE      CLOUDY    69  63  81 SE7       29.88F
OAK RIDGE      LGT RAIN  67  63  87 CALM      29.91F
GATLINBURG     CLOUDY    66  61  82 NE3       29.91F
$$

TNZ083-085-099-010600-
SOUTHEAST TENNESSEE

CITY           SKY/WX    TMP DP  RH WIND       PRES   REMARKS
CHATTANOOGA    LGT RAIN  67  65  93 S3        29.89F
$$

SKY/WX REPORTED AS FAIR MEANS FEW OR NO CLOUDS BELOW
12 THOUSAND FEET.




USA.gov is the U.S. government's official web portal to all federal, state and local government web resources and services.